Regional Weather Roundup
Issued by NWS

Home | Current Version | Previous Version | Graphics & Text | Print | Product List | Glossary On
Versions: 1 2 3 4 5 6 7 8 9 10 11 12 13 14 15 16 17 18 19 20 21 22 23 24 25 26 27 28 29 30 31 32 33 34 35 36 37 38 39 40 41 42 43 44 45 46 47 48 49 50
000
ASUS45 KCYS 280910
RWRWY

WYOMING REGIONAL WEATHER ROUNDUP
NATIONAL WEATHER SERVICE CHEYENNE WY
300 AM MDT SUN AUG 28 2016

NOTE:  "FAIR" INDICATES FEW OR NO CLOUDS BELOW 12,000 FEET
WITH NO SIGNIFICANT WEATHER AND/OR OBSTRUCTIONS TO VISIBILITY.

WYZ001-281000-
YELLOWSTONE NATIONAL PARK

CITY           SKY/WX    TMP DP  RH WIND       PRES   REMARKS
LK YELLOWSTONE   N/A     35  28  75 NW3       30.26R
W YELLOWSTONE  NOT AVBL

$$
WYZ002>013-054>058-071-098>099-281000-
NORTHERN WYOMING

CITY           SKY/WX    TMP DP  RH WIND       PRES   REMARKS
JACKSON        FAIR      39  27  60 N8        30.19R WCI  34
CODY           FAIR      64  27  24 S6        30.02R
GREYBULL       FAIR      57  35  43 SE5       29.96R
WORLAND        FAIR      54  32  43 S5        29.98R
SHERIDAN       FAIR      52  39  61 CALM      29.93R
BUFFALO        FAIR      60  27  28 W6        30.00R
GILLETTE       FAIR      57  37  47 S8        29.96R
HULETT         FAIR      61  37  41 SW3       29.98R
NEWCASTLE      FAIR      64  43  45 SE8       30.00S

$$
WYZ014>020-022>026-101>103-281000-
CENTRAL WYOMING

CITY           SKY/WX    TMP DP  RH WIND       PRES   REMARKS
BIG PINEY      FAIR      39  26  59 NE3       30.24R
PINEDALE       FAIR      36  28  75 NW6       30.26R WCI  31
DUBOIS         FAIR      46  21  36 W12       30.20S
LANDER         FAIR      62  28  27 CALM      30.08R
RIVERTON       FAIR      55  30  38 SW10      30.09R
CASPER         FAIR      59  36  42 SW9       30.07R
DOUGLAS        FAIR      53  32  44 CALM      30.05S

$$
WYZ021-027>030-104>119-281000-
SOUTHERN WYOMING

CITY           SKY/WX    TMP DP  RH WIND       PRES   REMARKS
EVANSTON       FAIR      53  24  32 S8        30.26R
FORT BRIDGER   FAIR      60  24  25 W10       30.27S
ROCK SPRINGS   FAIR      56  21  25 W10       30.22S
DIXON          FAIR      47  32  55 SE6       30.28R
RAWLINS        FAIR      53  32  44 SW7       30.22S
SARATOGA       FAIR      48  30  49 SE8       30.26R
LARAMIE        FAIR      40  29  64 SE7       30.25R
CHEYENNE       FAIR      53  37  54 W9        30.18R
TORRINGTON     FAIR      57  48  72 E7        30.04R
PINE BLUFFS    FAIR      46  43  87 W3        30.13S

$$



USA.gov is the U.S. government's official web portal to all federal, state and local government web resources and services.